TimeCST,TemperatureF,Dew PointF,Humidity,Sea Level PressureIn,VisibilityMPH,Wind Direction,Wind SpeedMPH,Gust SpeedMPH,PrecipitationIn,Events,Conditions,WindDirDegrees,DateUTC
12:15 AM,46.4,44.6,93,30.05,5.0,ENE,15.0,-,N/A,Rain,Rain,60,2013-01-10 06:15:00
12:35 AM,46.4,44.6,93,30.04,7.0,ENE,16.1,23.0,N/A,,Overcast,60,2013-01-10 06:35:00
12:55 AM,46.4,44.6,93,30.03,3.0,ENE,17.3,23.0,0.02,Rain,Light Rain,60,2013-01-10 06:55:00
2:15 AM,46.4,44.6,93,29.99,4.0,NE,15.0,-,N/A,,Overcast,50,2013-01-10 08:15:00
2:35 AM,46.4,44.6,93,29.99,3.0,NE,15.0,-,0.03,Rain,Rain,50,2013-01-10 08:35:00
3:15 AM,46.4,44.6,93,29.98,4.0,ENE,11.5,-,0.02,Rain,Light Rain,60,2013-01-10 09:15:00
3:35 AM,46.4,44.6,93,29.98,5.0,NE,8.1,-,0.02,,Light Drizzle,50,2013-01-10 09:35:00
4:15 AM,48.2,46.4,93,29.97,4.0,NE,5.8,-,0.01,,Light Drizzle,50,2013-01-10 10:15:00
4:35 AM,48.2,46.4,93,29.97,5.0,NNE,4.6,-,0.01,,Light Drizzle,20,2013-01-10 10:35:00
4:55 AM,46.4,46.4,100,29.96,5.0,NNW,4.6,-,0.01,,Overcast,340,2013-01-10 10:55:00
5:15 AM,46.4,46.4,100,29.95,5.0,North,5.8,-,N/A,,Overcast,360,2013-01-10 11:15:00
5:35 AM,46.4,46.4,100,29.94,2.5,North,6.9,-,N/A,,Overcast,10,2013-01-10 11:35:00
5:55 AM,46.4,46.4,100,29.93,4.0,North,6.9,-,N/A,,Overcast,360,2013-01-10 11:55:00
6:15 AM,48.2,46.4,93,29.93,5.0,North,6.9,-,N/A,,Overcast,360,2013-01-10 12:15:00
7:15 AM,46.4,46.4,100,29.92,1.2,North,6.9,-,N/A,,Overcast,10,2013-01-10 13:15:00
7:35 AM,48.2,46.4,93,29.92,1.0,NNE,8.1,-,N/A,,Overcast,30,2013-01-10 13:35:00
7:55 AM,48.2,46.4,93,29.92,0.8,NNE,5.8,-,N/A,,Overcast,30,2013-01-10 13:55:00
8:15 AM,48.2,46.4,93,29.91,1.0,NNE,5.8,-,N/A,,Overcast,30,2013-01-10 14:15:00
8:35 AM,48.2,46.4,93,29.92,0.8,ENE,5.8,-,N/A,,Overcast,60,2013-01-10 14:35:00
8:55 AM,48.2,46.4,93,29.92,0.5,NNE,4.6,-,N/A,Fog,Fog,30,2013-01-10 14:55:00
9:15 AM,48.2,46.4,93,29.92,0.8,North,5.8,-,N/A,,Overcast,360,2013-01-10 15:15:00
9:35 AM,46.4,46.4,100,29.91,1.0,North,8.1,-,N/A,Rain,Light Rain,360,2013-01-10 15:35:00
9:55 AM,46.4,46.4,100,29.91,1.2,NNE,6.9,-,N/A,,Light Drizzle,20,2013-01-10 15:55:00
10:15 AM,48.2,46.4,93,29.91,1.5,NNW,4.6,-,N/A,,Light Drizzle,340,2013-01-10 16:15:00
10:35 AM,46.4,46.4,100,29.92,1.0,NNW,5.8,-,N/A,,Drizzle,330,2013-01-10 16:35:00
10:55 AM,46.4,46.4,100,29.92,1.0,NNW,9.2,-,N/A,Rain,Light Rain,340,2013-01-10 16:55:00
11:15 AM,46.4,46.4,100,29.91,1.0,NNW,10.4,-,0.01,Rain,Heavy Rain,330,2013-01-10 17:15:00
11:35 AM,46.4,46.4,100,29.90,2.0,North,10.4,-,0.01,Rain,Light Rain,350,2013-01-10 17:35:00
11:55 AM,48.2,46.4,93,29.89,7.0,NNW,11.5,-,0.01,Rain,Light Rain,340,2013-01-10 17:55:00
6:15 PM,50.0,46.4,87,29.87,10.0,SSW,5.8,-,N/A,,Overcast,200,2013-01-11 00:15:00
6:35 PM,50.0,46.4,87,29.87,10.0,South,6.9,-,N/A,,Mostly Cloudy,170,2013-01-11 00:35:00
6:55 PM,50.0,44.6,82,29.87,10.0,SSE,6.9,-,N/A,,Mostly Cloudy,160,2013-01-11 00:55:00
7:15 PM,46.4,44.6,93,29.87,10.0,SSE,6.9,-,N/A,,Scattered Clouds,160,2013-01-11 01:15:00
7:35 PM,46.4,44.6,93,29.87,10.0,SE,8.1,-,N/A,,Clear,140,2013-01-11 01:35:00
7:55 PM,46.4,44.6,93,29.85,10.0,SE,9.2,-,N/A,,Clear,140,2013-01-11 01:55:00
8:15 PM,46.4,44.6,93,29.85,10.0,SSE,8.1,-,N/A,,Clear,150,2013-01-11 02:15:00
8:35 PM,44.6,44.6,100,29.85,10.0,SSE,8.1,-,N/A,,Clear,150,2013-01-11 02:35:00
8:55 PM,46.4,44.6,93,29.86,10.0,South,11.5,-,N/A,,Clear,170,2013-01-11 02:55:00
9:15 PM,46.4,44.6,93,29.86,10.0,South,11.5,-,N/A,,Clear,170,2013-01-11 03:15:00
9:35 PM,46.4,44.6,93,29.87,10.0,South,9.2,-,N/A,,Clear,180,2013-01-11 03:35:00
9:55 PM,46.4,44.6,93,29.87,10.0,South,9.2,-,N/A,,Clear,170,2013-01-11 03:55:00
10:15 PM,44.6,42.8,93,29.86,10.0,SE,9.2,-,N/A,,Clear,140,2013-01-11 04:15:00
10:35 PM,44.6,42.8,93,29.85,10.0,SSE,8.1,-,N/A,,Clear,150,2013-01-11 04:35:00
10:55 PM,44.6,42.8,93,29.85,10.0,SSE,10.4,-,N/A,,Clear,150,2013-01-11 04:55:00
11:15 PM,44.6,42.8,93,29.84,10.0,SSE,10.4,-,N/A,,Clear,150,2013-01-11 05:15:00
11:35 PM,44.6,42.8,93,29.84,10.0,SSE,10.4,-,N/A,,Clear,150,2013-01-11 05:35:00
11:55 PM,44.6,42.8,93,29.85,10.0,SSE,9.2,-,N/A,,Clear,150,2013-01-11 05:55:00